Home   Weather   Mildura   Past weeks

Flag for Australia Past Weather in Mildura, Victoria, Australia — Yesterday and Last 2 Weeks

Now
60 °F

Cool.


Feels Like: 60 °F
Forecast: 46 / 65 °F
Wind: 12 mph from West

Location: Mildura Airport

Current Time: Aug 31, 2016 at 10:44:38 AM

Latest Report: Aug 31, 2016 at 10:00 AM


Visibility: N/A

Pressure: 30.07 "Hg

Humidity: 71%

Dew Point: 51 °F

Location of MilduraLocation

Past Weather in Mildura — Graph

°F

Mildura Temperature Yesterday

Maximum temperature yesterday: 60 °F (at 11:00 AM)
Minimum temperature yesterday: 55 °F (at 5:00 AM)
Average temperature yesterday: 58 °F

High & Low Weather Summary for the Past Weeks

 TemperatureHumidityPressure
High78 °F (Aug 18, 3:00 PM)100% (Aug 31, 3:00 AM)30.31 "Hg (Aug 31, 3:00 AM)
Low33 °F (Aug 25, 7:00 AM)20% (Aug 18, 5:00 PM)29.72 "Hg (Aug 19, 3:00 AM)
Average54 °F63%30.06 "Hg
* Reported Aug 16 9:00 AM — Aug 31 9:00 AM, Mildura, Weather by CustomWeather, © 2016

Note: Actual official high and low records may vary slightly from our data, if they occured in-between our weather recording intervals... More about our weather records

Advertising

Mildura Weather History for the Previous 24 Hours

Scroll right to see more
 ConditionsComfort  
Time TempWeatherWind HumidityBarometerVisibility
9:00 AM
Wed, Aug 31
56 °FSunny.9 mph86%30.06 "Hg22 mi
8:00 AM53 °FCool.8 mph94%30.05 "HgN/A
7:00 AM51 °FCool.6 mph99%30.03 "HgN/A
6:00 AM51 °FPassing clouds.6 mph99%30.00 "HgN/A
5:00 AM53 °FCool.6 mph99%29.98 "HgN/A
4:00 AM54 °FCool.6 mph100%29.97 "HgN/A
3:00 AM54 °FOvercast.3 mph100%29.97 "HgN/A
2:00 AM53 °FCool.5 mph99%29.97 "HgN/A
1:00 AM55 °FCool.5 mph97%29.97 "HgN/A
12:00 AM57 °FOvercast.8 mph94%29.97 "HgN/A
11:00 PM
Tue, Aug 30
58 °FCool.9 mph94%29.98 "HgN/A
10:00 PM57 °FCool.8 mph96%29.97 "HgN/A
9:00 PM58 °FLow clouds.8 mph96%29.98 "HgN/A
8:00 PM58 °FCool.10 mph96%29.96 "HgN/A
7:00 PM57 °FCool.13 mph97%29.94 "HgN/A
6:00 PM57 °FLow clouds.14 mph98%29.93 "HgN/A
4:00 PM58 °FCool.12 mph96%29.93 "HgN/A
3:00 PM58 °FSprinkles. Overcast.14 mph92%29.93 "Hg16 mi
2:00 PM59 °FCool.12 mph85%29.95 "HgN/A
1:00 PM60 °FCool.15 mph82%29.96 "HgN/A
12:00 PM59 °FScattered clouds.16 mph81%29.98 "HgN/A
11:00 AM60 °FCool.13 mph70%30.00 "HgN/A
10:00 AM59 °FCool.23 mph72%29.98 "HgN/A
Weather by CustomWeather, © 2016

See weather overviewHow to use our weather pages